Terminal Aerodrome Forecast
Issued by NWS Portland, ME

Home | Current Version | Previous Version | Text Only | Print | Product List | Glossary On
Versions: 1 2 3 4 5 6 7 8 9 10 11 12 13 14 15 16 17 18 19 20 21 22
000
FTUS41 KGYX 300520
TAFPWM
TAF
KPWM 300520Z 3006/3106 00000KT 1/2SM FG VV002
     FM301300 20007KT 1/2SM FG BKN003
     FM301400 20008KT 1SM BR SCT250
     FM301500 19010KT P6SM FEW250
     FM301600 20016G22KT P6SM BKN250
     FM310200 20012G19KT P6SM OVC100
     FM310400 20011KT 6SM BR OVC050
     FM310500 20010G17KT 3SM BR VCTS OVC025CB=

USA.gov is the U.S. government's official web portal to all federal, state and local government web resources and services.